Wind_Speed
11 9 7 11 11 10 9 6 5 9 11 15 16 11 11 12 15 18 20 23 25 27 30 33 40 44 49 51 52 49 49 52 54 47 45 41 36 33 35 36 37 34 33 34 34
17 15 13 11 11 13 13 10 10 10 14 16 18 14 12 10 13 15 18 21 24 27 29 30 34 43 47 51 51 50 49 50 52 52 50 53 52 50 47 45 40 40 42 41 37
23 21 20 17 14 12 13 13 12 12 15 17 19 19 17 15 12 15 17 21 23 26 26 28 32 36 41 47 49 50 51 48 50 52 55 52 48 47 45 47 44 45 45 42 39
30 27 25 23 20 17 14 14 14 14 15 18 18 19 20 19 17 15 15 17 23 26 28 31 34 35 38 44 46 47 48 48 47 48 49 49 49 47 46 44 44 42 41 41 40
38 35 31 29 27 23 20 17 16 16 18 17 20 20 23 23 20 19 19 19 19 23 27 27 29 31 36 39 42 45 47 48 48 49 50 50 50 50 48 45 42 39 38 38 37
44 43 40 36 33 30 26 23 19 18 19 21 21 22 23 23 25 24 24 23 22 22 24 25 24 27 31 33 34 37 41 43 44 47 50 49 47 46 45 43 42 39 36 33 31
49 48 47 45 41 37 34 29 25 22 20 22 23 24 25 24 24 25 25 24 24 24 23 26 29 27 28 29 28 27 28 32 30 36 41 43 44 43 42 40 37 35 33 32 27
54 52 52 52 49 45 40 36 32 28 24 22 24 26 26 24 29 28 25 25 24 25 27 27 29 30 29 26 24 23 23 27 29 32 35 36 36 37 39 38 33 29 24 19 16
61 59 56 55 56 54 48 43 39 34 30 25 26 27 21 25 33 26 27 27 25 24 24 26 28 30 30 24 27 26 26 29 28 28 28 30 31 32 32 31 27 23 20 17 17
69 65 63 60 59 60 56 51 46 40 37 33 31 30 22 27 34 29 31 29 28 24 25 25 26 32 29 24 26 24 27 25 22 23 23 26 26 29 29 29 26 22 16 14 9
74 73 71 67 65 62 61 58 53 47 45 41 40 37 27 33 35 31 33 29 25 25 28 26 31 33 27 29 27 22 25 23 22 20 19 18 21 19 18 20 18 16 15 16 21
78 78 77 75 74 69 64 63 60 56 53 49 47 40 31 29 33 29 33 31 26 30 27 28 35 28 28 30 24 22 24 23 19 20 17 18 19 16 15 16 15 19 26 30 30
82 83 82 81 80 77 71 66 65 64 59 55 51 47 36 29 32 28 35 35 30 28 29 34 31 25 29 27 27 23 24 26 19 15 20 16 18 24 21 25 21 32 36 33 31
87 87 87 86 84 82 79 73 69 69 64 63 60 55 40 39 34 31 38 37 32 28 28 28 27 25 28 23 19 27 19 17 16 19 19 16 23 25 32 38 40 36 36 31 27
92 92 92 91 90 86 84 81 77 73 69 73 64 61 49 41 47 36 44 40 38 29 28 30 32 30 32 29 16 26 16 12 16 21 23 30 29 36 40 43 42 36 33 31 29
99 96 97 97 91 91 90 88 84 81 72 75 69 68 57 51 51 42 40 41 39 30 33 33 32 29 28 27 27 31 23 11 17 19 28 35 39 41 40 34 39 36 34 31 31
108 103 102 98 96 94 96 94 91 83 77 81 77 71 66 59 56 46 44 42 37 31 32 34 28 29 23 18 14 21 19 17 26 31 37 41 44 41 36 30 31 35 32 35 34
109 113 108 102 98 101 98 98 94 86 86 85 81 76 73 67 63 50 50 47 42 37 40 37 32 28 21 19 20 27 26 28 32 39 41 41 39 37 31 27 30 31 31 28 31
113 116 113 107 104 104 104 98 94 92 92 91 87 84 79 74 69 55 52 50 48 44 43 39 39 40 36 37 30 33 29 32 33 38 37 38 39 36 32 30 30 32 33 28 25
99 116 119 115 113 110 108 102 98 98 99 99 93 90 85 81 74 60 55 54 51 48 49 48 49 43 44 42 39 38 43 36 31 35 36 38 37 35 35 33 31 31 30 27 24
80 100 115 120 122 119 113 106 105 106 105 105 100 95 94 86 78 67 57 57 58 57 53 53 52 48 45 39 38 40 39 39 34 38 39 37 38 35 35 33 34 26 24 23 19
64 78 98 116 123 123 118 113 108 108 106 107 105 100 99 90 84 75 66 64 61 61 55 55 55 49 43 44 48 49 46 44 45 40 42 40 39 36 36 34 31 27 24 21 18
52 62 80 100 117 123 124 120 113 113 110 112 112 106 101 95 89 81 75 70 67 64 63 60 55 51 55 56 52 50 48 45 46 45 45 43 41 39 36 34 31 27 23 20 17
43 55 67 85 100 121 128 126 120 119 115 116 116 110 105 100 93 87 82 78 72 68 67 64 60 53 51 49 50 49 47 49 52 53 47 46 41 40 37 34 30 27 24 18 15
38 49 59 72 87 103 126 136 132 126 119 116 117 114 109 103 98 92 90 85 78 76 72 69 63 57 57 58 57 56 54 54 54 55 53 49 42 41 40 37 34 30 25 19 19
34 42 51 63 76 91 107 125 138 130 122 118 119 120 112 106 102 101 97 90 86 80 78 73 67 63 63 62 61 61 60 59 57 52 53 45 45 42 38 36 32 29 26 24 25
29 37 46 57 69 82 98 113 132 130 127 120 120 122 112 109 106 105 99 95 88 84 82 75 73 70 66 67 67 66 58 56 55 53 51 41 47 45 40 37 34 30 26 25 28
Wind_Direction
252 259 256 246 244 248 257 253 204 194 191 180 176 173 172 187 199 195 190 187 187 191 195 197 200 199 202 203 208 211 214 217 219 220 217 220 216 221 231 244 247 256 259 272 273
242 246 250 256 252 251 252 247 237 217 207 197 192 192 197 188 187 194 193 192 189 186 192 195 198 200 203 205 210 214 217 219 221 223 222 228 235 244 252 253 253 258 263 267 270
241 238 242 245 251 252 252 245 238 233 220 213 209 207 210 209 194 191 196 192 196 189 188 193 196 198 207 207 212 216 221 222 224 228 230 231 237 245 254 255 256 258 262 268 273
243 239 238 240 242 247 250 250 242 239 225 222 225 223 218 216 205 191 195 193 201 198 191 193 196 195 203 208 214 218 222 226 229 232 235 239 239 243 256 254 254 258 264 267 270
242 241 238 237 238 238 242 244 246 243 238 231 228 226 226 222 216 208 206 197 203 207 203 196 197 198 205 207 213 219 224 227 230 235 238 241 244 249 254 256 255 260 264 266 268
240 240 238 236 235 235 235 236 238 241 237 237 233 229 227 225 223 214 212 207 207 204 207 202 196 199 203 205 212 220 224 230 233 237 238 241 243 245 249 250 254 258 262 265 269
242 238 239 237 234 233 233 233 233 236 237 236 236 232 226 223 227 225 222 217 213 213 216 206 204 202 207 206 207 210 222 225 229 235 238 241 243 244 245 248 251 254 260 266 271
244 240 237 237 236 233 231 231 230 231 235 234 236 236 226 217 229 230 228 226 219 218 219 220 216 213 210 213 215 215 223 229 230 233 234 236 239 243 245 245 246 250 254 259 266
242 241 238 236 237 235 231 228 229 227 231 233 237 239 224 215 233 233 235 233 229 223 220 225 225 223 217 210 213 221 230 231 232 237 239 241 241 241 241 239 238 241 249 250 260
240 239 239 237 234 235 233 229 226 225 226 227 233 237 215 219 232 227 235 229 225 225 220 218 221 227 221 226 226 231 244 240 246 239 234 233 235 236 235 232 231 232 231 221 181
241 238 236 237 236 232 232 231 227 223 223 225 229 233 213 219 231 224 235 236 226 213 214 216 220 224 225 226 229 230 242 243 240 246 231 227 222 214 214 208 191 181 175 163 144
241 239 236 233 235 233 228 230 229 225 222 223 229 231 222 217 232 225 232 235 218 210 206 212 221 218 219 224 219 219 230 246 244 225 210 207 184 165 171 154 156 161 146 139 137
242 239 236 233 231 232 230 225 226 227 224 223 226 230 225 220 229 224 230 231 222 209 200 208 218 214 217 215 212 210 218 241 219 197 198 189 157 140 150 137 147 147 132 133 132
240 239 236 232 231 229 229 225 223 224 224 225 222 229 219 221 222 217 226 224 225 215 208 215 208 203 219 228 212 193 221 210 176 170 168 173 139 138 139 136 139 135 130 135 137
242 237 237 233 229 228 226 224 221 221 220 225 222 225 220 220 222 212 221 219 222 210 203 203 208 202 210 223 200 197 209 190 172 165 160 150 143 145 146 141 139 137 132 136 133
242 238 236 234 229 226 225 223 221 219 216 223 221 223 221 217 221 213 220 222 223 206 203 201 205 194 205 205 193 195 215 234 169 161 156 148 148 150 152 152 141 142 140 137 133
239 237 235 232 231 227 224 222 221 218 215 220 221 221 222 216 221 209 214 221 224 209 203 197 203 200 186 194 173 204 193 199 166 154 149 151 151 153 160 164 153 145 145 144 140
231 232 231 231 228 228 224 222 219 217 216 217 219 218 221 216 221 207 211 216 212 206 202 194 203 199 190 195 189 174 177 189 170 158 155 155 156 154 162 166 159 148 148 151 146
232 228 227 226 227 226 226 222 218 214 216 216 215 216 218 217 219 208 206 212 211 204 203 199 207 198 190 198 190 179 183 194 178 163 163 163 164 163 170 168 163 155 152 158 154
230 229 226 221 223 224 224 220 217 215 213 215 214 214 214 218 215 209 204 210 210 209 206 199 207 205 200 196 186 188 192 185 189 179 175 174 176 170 171 170 170 166 161 167 164
230 227 226 222 219 219 220 219 215 214 211 214 212 210 212 213 214 210 200 211 210 206 208 202 207 203 198 183 191 196 194 174 196 188 189 186 180 173 175 174 171 171 171 172 178
233 226 225 222 219 217 214 216 216 215 211 212 212 211 212 208 212 209 203 207 211 211 204 203 207 197 189 192 190 189 187 178 179 187 198 193 187 185 183 175 176 180 183 187 188
233 226 222 223 219 217 213 212 213 215 210 210 213 211 210 208 208 207 207 207 209 209 211 208 205 194 194 193 190 189 181 177 180 192 200 196 187 185 182 181 183 189 193 195 206
233 226 219 220 219 215 213 212 212 214 210 207 213 209 209 207 205 207 208 209 207 207 210 212 210 198 196 196 195 200 189 183 185 187 196 198 189 184 188 188 191 196 201 210 214
233 228 218 217 218 215 214 212 211 212 210 207 209 209 208 206 204 205 208 209 207 208 207 209 211 205 201 199 198 200 196 191 191 191 187 197 193 193 192 195 199 202 204 215 225
234 230 220 214 216 214 214 213 209 209 208 207 205 211 206 205 204 204 208 208 206 208 208 206 209 206 207 206 202 202 198 194 196 194 194 191 194 202 200 203 209 210 216 216 232
236 229 225 216 214 212 212 211 208 207 207 206 205 210 205 205 204 204 205 208 209 209 210 206 209 208 208 211 207 202 200 197 198 199 204 195 200 201 207 209 215 221 230 237 246
Height
10928 10928 10929 10929 10929 10929 10929 10930 10930 10930 10930 10930 10931 10930 10932 10933 10934 10936 10938 10940 10943 10947 10949 10953 10958 10965 10967 10971 10974 10977 10982 10983 10989 10995 10998 10999 11001 11005 11008 11011 11013 11014 11016 11016 11018
10925 10925 10926 10927 10927 10928 10928 10929 10929 10930 10930 10930 10930 10931 10931 10933 10934 10936 10938 10940 10942 10946 10949 10953 10957 10962 10964 10967 10971 10975 10977 10980 10987 10991 10995 10997 10999 11001 11003 11007 11010 11012 11013 11014 11014
10920 10922 10922 10924 10925 10925 10926 10927 10928 10928 10929 10930 10930 10930 10931 10932 10934 10936 10938 10939 10942 10944 10948 10952 10955 10959 10963 10967 10970 10972 10974 10980 10983 10988 10991 10995 10998 11000 11002 11004 11007 11009 11010 11010 11009
10914 10916 10918 10919 10921 10922 10923 10924 10926 10927 10928 10929 10929 10929 10930 10931 10934 10937 10938 10940 10942 10944 10946 10949 10953 10958 10959 10962 10966 10969 10973 10976 10981 10985 10988 10991 10995 10997 10998 10999 11001 11003 11005 11005 11006
10907 10910 10912 10914 10916 10918 10919 10920 10922 10924 10925 10926 10927 10928 10928 10929 10932 10935 10937 10940 10942 10944 10945 10949 10953 10955 10957 10959 10962 10966 10968 10972 10975 10979 10982 10985 10989 10991 10993 10994 10996 10999 11000 11000 11000
10899 10901 10904 10907 10910 10912 10915 10917 10918 10920 10922 10923 10924 10925 10926 10927 10929 10932 10934 10938 10941 10942 10944 10947 10948 10950 10952 10955 10959 10963 10966 10969 10971 10973 10976 10979 10982 10985 10986 10989 10992 10994 10994 10994 10995
10888 10892 10895 10898 10902 10905 10908 10912 10914 10916 10918 10919 10921 10921 10923 10924 10925 10927 10930 10934 10938 10941 10942 10946 10946 10948 10951 10954 10957 10961 10965 10967 10968 10968 10971 10974 10977 10979 10981 10984 10987 10988 10990 10991 10993
10874 10879 10884 10887 10891 10896 10900 10905 10908 10911 10913 10915 10916 10916 10919 10922 10920 10922 10927 10930 10934 10938 10940 10942 10944 10947 10950 10955 10958 10959 10961 10962 10962 10964 10966 10968 10971 10974 10976 10979 10982 10984 10986 10989 10990
10859 10864 10870 10876 10879 10884 10892 10897 10900 10905 10907 10909 10910 10911 10916 10918 10915 10921 10922 10926 10931 10935 10938 10939 10941 10944 10946 10951 10954 10954 10954 10957 10960 10961 10963 10964 10966 10969 10972 10974 10977 10980 10984 10987 10988
10841 10848 10853 10860 10866 10872 10880 10886 10892 10898 10899 10902 10902 10904 10911 10913 10911 10914 10915 10920 10924 10931 10934 10936 10937 10938 10942 10946 10948 10951 10950 10956 10957 10958 10959 10960 10962 10964 10968 10970 10974 10978 10981 10984 10986
10820 10828 10836 10842 10848 10857 10867 10875 10882 10888 10890 10893 10893 10895 10902 10904 10905 10910 10910 10914 10921 10926 10928 10932 10930 10932 10940 10941 10945 10949 10948 10950 10952 10955 10956 10956 10957 10959 10964 10968 10971 10975 10980 10983 10985
10797 10804 10814 10824 10829 10838 10851 10860 10869 10875 10879 10882 10884 10889 10895 10900 10901 10906 10907 10909 10914 10917 10924 10925 10923 10931 10935 10937 10942 10945 10946 10948 10951 10950 10952 10954 10953 10955 10961 10966 10970 10974 10979 10983 10988
10772 10779 10789 10801 10809 10819 10833 10844 10853 10859 10869 10874 10877 10881 10888 10896 10897 10902 10902 10904 10907 10915 10920 10916 10922 10929 10930 10935 10938 10943 10945 10946 10948 10947 10951 10954 10955 10954 10961 10964 10973 10978 10978 10985 10990
10746 10754 10764 10775 10787 10800 10812 10826 10835 10844 10857 10860 10865 10868 10882 10884 10891 10895 10896 10900 10903 10908 10913 10915 10920 10925 10927 10931 10936 10941 10943 10944 10945 10948 10950 10954 10956 10959 10964 10967 10976 10982 10981 10989 10993
10717 10726 10736 10746 10764 10777 10791 10803 10815 10827 10842 10838 10855 10859 10872 10880 10874 10888 10886 10893 10896 10903 10909 10911 10913 10920 10924 10926 10933 10939 10943 10946 10946 10948 10951 10953 10958 10964 10969 10971 10975 10982 10984 10989 10993
10682 10694 10705 10718 10738 10754 10764 10780 10795 10806 10828 10828 10843 10847 10860 10867 10867 10878 10886 10888 10891 10900 10903 10910 10909 10915 10918 10925 10930 10937 10943 10948 10949 10950 10953 10954 10959 10969 10975 10978 10976 10980 10984 10990 10994
10640 10658 10671 10690 10715 10725 10737 10753 10772 10794 10808 10810 10823 10838 10847 10857 10858 10873 10878 10884 10892 10899 10903 10906 10911 10913 10919 10926 10934 10937 10942 10948 10948 10949 10953 10960 10961 10968 10975 10981 10980 10979 10984 10989 10994
10593 10613 10635 10663 10684 10692 10710 10728 10753 10778 10785 10791 10808 10822 10832 10844 10847 10864 10870 10876 10883 10892 10894 10902 10908 10914 10921 10925 10929 10933 10940 10945 10948 10951 10956 10961 10967 10968 10975 10981 10982 10981 10986 10993 10994
10551 10569 10599 10631 10650 10665 10680 10706 10734 10751 10765 10770 10787 10801 10815 10828 10836 10853 10863 10870 10876 10884 10890 10898 10901 10905 10911 10916 10927 10933 10938 10940 10952 10954 10960 10964 10968 10970 10977 10981 10983 10983 10984 10993 10996
10508 10530 10558 10590 10611 10630 10649 10681 10703 10722 10733 10745 10764 10782 10797 10810 10826 10844 10857 10863 10871 10878 10881 10887 10888 10899 10904 10910 10919 10927 10927 10939 10951 10957 10963 10963 10968 10970 10976 10980 10983 10986 10987 10992 10994
10478 10497 10522 10545 10566 10592 10622 10649 10669 10681 10703 10721 10743 10760 10771 10794 10815 10834 10850 10853 10859 10865 10873 10881 10884 10892 10900 10914 10920 10924 10933 10934 10945 10955 10961 10964 10968 10972 10977 10980 10982 10987 10989 10992 10995
10455 10475 10488 10507 10531 10560 10590 10618 10642 10660 10689 10706 10723 10739 10754 10782 10798 10819 10833 10838 10849 10859 10869 10874 10877 10888 10902 10907 10910 10916 10922 10928 10935 10949 10959 10963 10966 10970 10975 10978 10982 10986 10989 10992 10994
10437 10452 10463 10475 10502 10531 10559 10583 10610 10628 10658 10681 10693 10720 10743 10765 10784 10804 10817 10826 10837 10849 10861 10866 10876 10885 10888 10895 10906 10917 10921 10928 10931 10944 10955 10959 10962 10968 10973 10976 10979 10984 10987 10990 10993
10421 10429 10440 10451 10472 10500 10527 10552 10579 10597 10630 10654 10671 10701 10723 10745 10769 10789 10802 10811 10825 10837 10848 10860 10868 10882 10893 10903 10908 10916 10921 10924 10930 10936 10950 10953 10959 10963 10968 10973 10977 10982 10986 10989 10991
10405 10410 10421 10433 10448 10469 10489 10516 10544 10572 10606 10636 10657 10681 10704 10729 10753 10773 10783 10795 10812 10820 10831 10848 10864 10878 10882 10887 10896 10902 10912 10919 10928 10933 10938 10946 10957 10961 10963 10967 10971 10977 10981 10986 10989
10392 10398 10407 10416 10429 10447 10464 10487 10517 10549 10586 10615 10640 10652 10686 10713 10735 10745 10763 10782 10792 10809 10818 10837 10854 10865 10874 10880 10887 10894 10903 10914 10922 10930 10934 10941 10951 10957 10961 10964 10967 10972 10977 10979 10983
10381 10386 10394 10401 10411 10426 10441 10464 10498 10537 10562 10596 10622 10636 10677 10698 10715 10731 10754 10771 10789 10801 10810 10830 10840 10852 10864 10870 10876 10886 10904 10915 10921 10927 10933 10943 10944 10950 10958 10962 10964 10967 10972 10974 10976